Regional Weather Roundup
Issued by NWS

Home | Current Version | Previous Version | Graphics & Text | Print | Product List | Glossary On
Versions: 1 2 3 4 5 6 7 8 9 10 11 12 13 14 15 16 17 18 19 20 21 22 23 24 25 26 27 28 29 30 31 32 33 34 35 36 37 38 39 40 41 42 43 44 45 46 47 48 49 50
000
ASUS45 KBOU 101307
RWRCO

WEATHER ROUNDUP FOR COLORADO
NATIONAL WEATHER SERVICE DENVER/BOULDER CO
600 AM MST WED FEB 10 2016

NOTE: "FAIR" INDICATES FEW OR NO CLOUDS BELOW 12000 FEET WITH NO
SIGNIFICANT WEATHER AND/OR OBSTRUCTIONS TO VISIBILITY.

COZ001>005-013-030-031-101400-
...NORTHWEST COLORADO...

CITY           SKY/WX    TMP DP  RH WIND       PRES   REMARKS
CRAIG          FOG       -3  -7  82 CALM      30.45F VSB 1/2
HAYDEN         CLOUDY    16   9  73 E12       30.42F WCI   3
MEEKER         CLOUDY    11   5  77 CALM      30.45R
MOUNT WERNER   NOT AVBL
STEAMBOAT SPGS CLOUDY    10   8  89 CALM      30.45S
WALDEN         CLOUDY     5  -2  72 SE8       30.41S WCI  -8
$$

COZ006>008-011-101400-
...WEST CENTRAL VALLEYS...

CITY           SKY/WX    TMP DP  RH WIND       PRES   REMARKS
GRAND JUNCTION CLOUDY    20  17  88 SE9       30.46R WCI   9
MONTROSE       CLOUDY    19  11  70 SE12      30.49R WCI   7
EAGLE          CLOUDY     7   5  92 CALM      30.56S
RIFLE          CLOUDY    13   8  81 CALM      30.48F
DELTA          CLOUDY    26  19  73 CALM      30.49S
NUCLA          CLOUDY    23  18  80 SE5       30.49S WCI  17
$$

COZ017>023-064>068-101400-
...SOUTHWEST COLORADO...

CITY           SKY/WX    TMP DP  RH WIND       PRES   REMARKS
DURANGO        CLOUDY     9   5  84 NE5       30.44S WCI   1
CORTEZ         CLOUDY    16  13  88 NE8       30.45R WCI   5
PAGOSA SPRINGS CLOUDY    18  10  73 CALM      30.46S
TELLURIDE      CLOUDY    28   2  32 SE7       30.50S WCI  21
WOLF CREEK PAS CLOUDY    30 -13  15 W8        30.58S WCI  23
$$

COZ009-010-012-014-032>034-037-058>063-101400-
...CENTRAL COLORADO...

CITY           SKY/WX    TMP DP  RH WIND       PRES   REMARKS
ASPEN          CLOUDY    11   3  70 SW7       30.45S WCI   0
BUENA VISTA    CLOUDY    18   8  65 W5        30.42S WCI  11
COPPER MTN     CLOUDY    27  -9  20 SW12      30.51S WCI  16
BERTHOUD PASS  FAIR      21  10  63 NW31G43   30.46S WCI   3
COTTONWOOD PAS CLOUDY    37 -15  10 SW3       30.44R
GUNNISON       CLOUDY   -13 -17  84 CALM      30.61R
KREMMLING      FOG      N/A N/A N/A CALM      30.55R VSB 3/4
LEADVILLE      CLOUDY    21  -6  30 VRB5      30.45S WCI  15
MONARCH PASS   CLOUDY    23  -2  33 SW21G29   30.61S WCI   8
SALIDA         NOT AVBL
SUNLIGHT       CLOUDY    30   9  40 CALM        N/A
WILKERSON PASS CLOUDY    30  -8  19 NW10G18   30.47R WCI  21
$$

COZ069>075-101400-
...SAN LUIS VALLEY/SANGRE DE CRISTO MOUNTAINS...

CITY           SKY/WX    TMP DP  RH WIND       PRES   REMARKS
ALAMOSA        CLOUDY    11   8  88 S6        30.45R WCI   1
LA VETA PASS   CLOUDY    27   9  46 S9G18     30.43R WCI  17
SAGUACHE       CLOUDY    27   9  46 NW14      30.46S WCI  15
$$

COZ035-036-038>040-101400-
...NORTHERN COLORADO FRONT RANGE...

CITY           SKY/WX    TMP DP  RH WIND       PRES   REMARKS
DENVER INTL AP CLOUDY    38  13  35 SW12      30.16F
DMNS CITY PARK   N/A     40   9  28 SE9       30.17F
AURORA         PTCLDY    40  11  31 SW10      30.18F
FRONT RANGE AP NOT AVBL
ERIE MUNI ARPT CLOUDY    44  15  30 W8        30.15S
BOULDER MUN AP CLOUDY    54  12  19 W20G29    30.15S
CENTENNIAL     CLOUDY    40  11  30 SW14      30.19F
BROOMFIELD     CLEAR     52  12  20 W21G29    30.17S
FORT COLLINS   CLOUDY    34  19  55 SE7       30.14S WCI  28
LONGMONT       CLOUDY    50  14  24 S6        30.15F
$$

COZ041-046-047-076>085-087-088-101400-
...PIKES PEAK/PALMER DIVIDE AND SOUTHERN FOOTHILLS...

CITY           SKY/WX    TMP DP  RH WIND       PRES   REMARKS
COLO. SPRINGS  CLOUDY    44   5  20 NW15      30.24R
A. F. ACADEMY  CLOUDY    32   8  35 VRB5      30.24S WCI  28
SCHRIEVER AFB  NOT AVBL
ELLICOTT       CLOUDY   N/A N/A N/A N3        30.21F
FALCON         NOT AVBL
FORT CARSON    NOT AVBL
LIMON          CLOUDY    30  14  51 W9        30.17S WCI  22
MONUMENT HILL  CLOUDY    30   5  34 SW12      30.26S WCI  21
TRINIDAD       CLOUDY    34  12  40 W13       30.26R WCI  25
$$

COZ042>045-048>051-090-091-101400-
...NORTHEAST COLORADO...

CITY           SKY/WX    TMP DP  RH WIND       PRES   REMARKS
GREELEY ARPT   CLOUDY    18  12  79 W5        30.14S WCI  11
AKRON          CLOUDY    35  19  52 W15       30.10S WCI  25
BURLINGTON     CLOUDY    31  18  58 W14       30.10F WCI  21
WRAY           CLOUDY    32  23  70 SW12      30.07F WCI  23
STERLING       CLOUDY    25  23  93 S9        30.08F WCI  15
HOLYOKE        CLOUDY    34  27  75 W12       30.05S WCI  25
FORT MORGAN    CLOUDY    26  20  78 W8        30.11S WCI  18
$$

COZ086-089-092>099-101400-
...SOUTHEAST COLORADO...

CITY           SKY/WX    TMP DP  RH WIND       PRES   REMARKS
PUEBLO         CLOUDY    39  16  39 W10       30.19F
LA JUNTA       CLOUDY    36  20  52 W16       30.17S
LAMAR          CLOUDY    28  24  85 W8        30.15S WCI  20
SPRINGFIELD      N/A     38  19  46 W15       30.16F
$$



USA.gov is the U.S. government's official web portal to all federal, state and local government web resources and services.